Temp
65 65 65 66 66 66 65 66 66 65 64 64 65 65 64 64 62 63 62 63 57 57 61 61 61 62 62 61 61 58 57 52 46 49 50 51 51 52 51 52 52 51 53
66 65 65 65 65 64 64 65 65 64 65 64 65 65 64 62 62 63 63 63 60 58 60 61 61 63 58 60 64 57 58 55 49 50 50 49 49 50 49 49 49 50 50
66 66 66 64 63 64 64 64 64 65 65 65 64 62 62 63 64 64 64 63 61 60 59 61 61 61 58 59 60 58 57 56 51 51 48 50 49 49 47 47 47 48 50
65 65 63 62 63 63 64 63 64 64 64 64 64 64 63 64 63 63 63 62 59 60 60 60 61 61 57 55 58 54 55 53 50 49 48 48 48 48 47 45 45 48 48
64 63 62 65 64 63 63 64 64 64 64 64 63 63 63 63 61 58 60 60 58 58 59 61 61 58 55 53 53 55 54 51 49 48 47 48 47 48 45 46 45 45 48
63 62 63 64 64 62 62 63 62 62 62 62 61 61 60 58 48 48 52 58 56 56 58 57 59 60 56 52 52 52 52 50 48 49 48 47 48 46 46 46 46 45 43
61 62 64 64 61 61 61 60 60 59 59 58 59 58 56 56 47 46 47 57 58 56 53 56 57 58 56 54 54 53 54 52 50 50 49 49 49 49 49 48 49 47 44
62 62 63 63 59 60 59 58 57 57 55 55 54 53 51 50 46 45 46 56 58 57 57 56 55 54 52 48 49 52 53 51 51 51 52 51 52 52 53 51 48 47 47
60 59 61 59 57 57 55 51 55 55 54 50 49 48 47 49 44 44 48 55 56 57 57 56 50 50 45 45 51 49 48 48 48 48 47 46 45 46 51 52 48 48 45
58 58 59 57 54 47 49 52 54 52 49 48 47 47 48 48 44 44 48 57 55 54 53 49 46 44 43 44 49 47 46 46 48 48 49 51 53 51 50 51 49 46 46
59 57 56 54 53 54 52 52 49 47 46 46 47 48 49 46 49 44 43 51 48 47 47 46 45 43 42 42 44 46 45 47 47 48 49 52 54 48 51 49 50 52 48
58 57 55 52 52 54 49 48 47 46 45 45 46 48 52 52 45 45 43 43 45 46 46 47 45 42 41 42 46 42 44 48 53 52 50 52 50 54 52 52 54 53 61
57 53 52 53 50 49 47 47 45 45 45 46 46 49 52 55 52 46 44 43 45 48 48 45 43 43 44 46 44 45 49 56 53 50 48 50 47 50 51 51 53 59 57
52 53 52 49 48 48 48 47 45 43 43 45 46 48 50 48 46 46 49 49 47 49 49 50 47 47 46 50 53 51 50 48 47 45 48 49 49 54 57 61 60 60 59
50 50 48 47 47 47 48 46 45 46 45 47 47 48 45 44 44 41 42 49 54 49 52 54 53 53 52 52 51 50 50 49 47 50 48 48 55 60 61 63 64 64 62
47 47 46 47 47 46 46 46 41 41 40 39 39 42 48 41 40 41 41 41 41 43 51 48 47 47 46 47 46 46 47 47 56 60 60 62 61 63 63 64 65 64 63
47 48 47 46 47 48 48 48 47 45 42 41 41 40 39 39 40 41 41 42 42 46 48 47 47 50 56 58 60 61 60 61 63 65 64 64 65 66 66 65 66 65 65
50 45 49 48 48 51 52 52 52 49 49 49 45 43 41 40 41 41 41 46 50 49 48 49 51 57 61 64 66 66 66 66 67 67 66 67 67 67 67 67 67 66 67
50 50 50 50 50 48 49 48 48 47 46 45 47 46 45 43 43 43 45 52 53 55 60 63 67 67 67 66 66 65 64 65 65 67 67 68 68 69 69 69 66 50 52
54 45 48 53 50 48 48 47 47 47 46 47 50 50 55 54 55 56 61 65 66 67 68 68 69 69 70 69 68 68 68 65 66 68 67 67 69 70 69 69 69 67 66
58 56 47 51 50 49 49 48 48 47 47 53 58 56 35 67 66 67 67 68 68 68 68 69 71 71 72 72 71 70 71 70 70 70 71 71 71 71 72 71 70 70 70
63 61 54 51 49 50 50 50 51 52 55 60 64 63 41 69 68 68 67 68 69 70 71 70 72 73 72 72 72 72 71 70 70 71 71 72 71 72 72 72 71 71 70
65 58 53 56 62 55 61 60 58 60 66 68 68 69 68 68 68 68 68 68 69 69 71 71 71 71 73 72 72 72 70 70 71 72 71 71 71 71 71 70 70 69 68
66 64 64 61 65 67 62 63 62 52 64 66 66 68 68 68 68 67 68 69 69 69 70 70 69 68 68 70 71 70 66 63 72 73 72 71 70 68 71 70 70 69 69
62 64 63 64 67 65 61 54 56 65 68 68 68 68 69 68 68 68 69 69 69 69 68 68 68 68 66 64 64 63 43 37 57 44 73 71 70 69 70 70 69 69 68
63 65 64 66 61 56 58 61 67 68 67 68 68 68 68 68 68 68 68 68 69 68 68 68 66 64 65 63 55 39 36 36 50 38 68 72 70 69 70 69 68 69 67
MSLP
1021.16 1021.00 1020.79 1020.58 1020.41 1020.21 1019.96 1019.60 1019.34 1019.12 1018.80 1018.53 1018.25 1018.00 1017.89 1017.82 1018.00 1017.73 1017.61 1017.30 1017.58 1017.42 1016.71 1016.34 1015.73 1015.42 1014.86 1014.54 1014.64 1014.50 1014.19 1014.23 1013.98 1013.63 1013.65 1013.67 1013.51 1013.46 1013.41 1013.08 1012.78 1012.32 1011.80
1021.07 1020.98 1020.72 1020.63 1020.39 1020.15 1019.80 1019.42 1019.13 1018.80 1018.39 1018.19 1017.92 1017.73 1017.66 1017.89 1017.81 1017.35 1017.13 1017.10 1017.15 1017.04 1016.72 1016.03 1015.62 1015.34 1015.07 1014.37 1013.80 1014.31 1013.98 1013.84 1013.91 1013.34 1013.73 1013.99 1014.12 1014.09 1014.01 1013.79 1013.64 1013.15 1012.77
1021.00 1020.70 1020.42 1020.46 1020.27 1019.92 1019.59 1019.31 1018.98 1018.59 1018.15 1017.89 1017.80 1017.82 1017.74 1017.57 1017.38 1017.19 1017.00 1016.77 1016.79 1016.78 1016.71 1016.04 1015.67 1015.37 1015.02 1014.78 1014.22 1014.19 1014.03 1013.72 1013.70 1013.45 1013.80 1014.18 1014.39 1014.40 1014.27 1014.18 1014.07 1013.88 1013.55
1020.98 1020.56 1020.51 1020.42 1020.19 1019.81 1019.46 1019.23 1018.89 1018.55 1018.19 1017.82 1017.74 1017.60 1017.59 1017.46 1017.46 1017.46 1017.02 1016.67 1016.58 1016.60 1016.51 1016.14 1015.73 1015.45 1015.46 1015.46 1014.75 1014.57 1014.14 1013.87 1013.66 1013.62 1013.99 1014.23 1014.41 1014.73 1014.56 1014.55 1014.43 1014.31 1014.00
1020.70 1020.46 1020.35 1019.90 1019.86 1019.77 1019.55 1019.12 1018.91 1018.62 1018.26 1017.99 1017.91 1017.79 1017.70 1017.58 1018.13 1018.23 1017.57 1016.90 1016.76 1016.60 1016.50 1016.14 1015.62 1015.77 1015.81 1015.81 1015.50 1014.75 1014.28 1014.15 1013.98 1014.04 1014.26 1014.44 1014.59 1014.54 1014.72 1014.92 1014.84 1014.74 1014.57
1020.91 1020.53 1020.28 1019.94 1019.70 1019.65 1019.46 1019.20 1019.06 1018.79 1018.58 1018.40 1018.22 1018.10 1017.91 1018.24 1018.78 1018.73 1018.26 1017.13 1017.22 1016.94 1016.35 1016.35 1015.85 1015.23 1015.48 1015.60 1015.34 1015.03 1014.84 1014.54 1014.32 1014.17 1014.47 1014.59 1014.71 1014.88 1014.96 1014.85 1014.80 1014.66 1014.79
1020.98 1020.63 1020.00 1019.71 1019.70 1019.66 1019.57 1019.45 1019.30 1019.21 1019.06 1018.82 1018.55 1018.53 1018.59 1018.64 1018.94 1018.70 1018.18 1017.37 1016.95 1016.84 1016.82 1016.27 1015.81 1015.57 1015.48 1015.42 1015.02 1014.72 1014.43 1014.54 1014.60 1014.51 1014.46 1014.66 1014.80 1015.01 1014.97 1014.88 1014.95 1015.18 1015.58
1020.88 1020.51 1019.97 1019.73 1019.91 1019.86 1019.90 1019.84 1019.71 1019.64 1019.54 1019.24 1019.23 1019.36 1019.36 1019.28 1019.10 1018.76 1018.21 1017.36 1016.81 1016.64 1016.35 1016.28 1016.22 1015.93 1015.75 1015.67 1015.32 1014.87 1014.72 1014.79 1014.59 1014.59 1014.74 1015.06 1015.16 1015.25 1015.11 1015.32 1015.51 1015.82 1016.08
1020.91 1020.80 1020.54 1020.51 1020.44 1020.54 1020.67 1020.86 1020.48 1019.93 1019.67 1020.02 1020.11 1019.94 1019.83 1019.34 1019.31 1018.85 1018.20 1017.29 1016.77 1016.38 1016.49 1016.63 1016.90 1016.45 1016.02 1015.65 1015.43 1015.37 1015.36 1015.35 1015.26 1015.26 1015.48 1015.63 1015.73 1015.70 1015.48 1015.39 1015.58 1015.66 1016.08
1021.36 1021.37 1021.20 1021.18 1021.66 1021.86 1021.60 1021.15 1020.72 1020.57 1020.51 1020.45 1020.33 1020.17 1019.92 1019.64 1019.53 1018.97 1018.22 1017.13 1017.03 1017.15 1017.28 1017.26 1017.15 1016.80 1016.41 1016.07 1015.95 1015.96 1015.95 1016.03 1015.91 1015.95 1016.03 1015.90 1015.54 1015.88 1015.89 1015.73 1015.65 1015.74 1015.86
1021.84 1021.79 1021.76 1022.04 1021.94 1021.73 1021.56 1021.45 1021.33 1021.20 1020.95 1020.69 1020.40 1020.25 1020.05 1020.00 1019.57 1019.33 1018.86 1018.44 1018.35 1018.10 1017.90 1017.68 1017.59 1017.28 1016.95 1016.74 1016.62 1016.60 1016.62 1016.63 1016.59 1016.48 1016.52 1016.28 1016.26 1016.43 1016.30 1016.30 1016.13 1015.79 1015.79
1022.13 1022.00 1022.27 1022.47 1022.33 1021.97 1021.99 1021.97 1021.80 1021.50 1021.18 1020.87 1020.69 1020.30 1019.86 1019.75 1019.75 1019.63 1019.41 1019.06 1018.71 1018.42 1018.28 1018.26 1018.24 1017.89 1017.62 1017.46 1017.34 1017.28 1017.10 1016.88 1016.72 1016.74 1016.90 1016.71 1016.82 1016.48 1016.87 1016.66 1016.39 1016.36 1015.44
1022.33 1022.64 1022.82 1022.56 1022.66 1022.58 1022.41 1022.27 1022.11 1021.98 1021.64 1021.31 1020.95 1020.39 1019.93 1019.60 1019.82 1019.83 1019.63 1019.39 1019.06 1018.82 1018.77 1018.77 1018.59 1018.39 1018.10 1017.90 1017.78 1017.58 1017.21 1017.01 1017.12 1017.27 1017.51 1017.63 1017.83 1017.78 1017.50 1017.24 1016.94 1016.38 1016.44
1023.11 1022.90 1022.89 1023.07 1023.05 1022.98 1022.81 1022.68 1022.55 1022.49 1022.24 1021.92 1021.47 1020.96 1020.63 1020.66 1020.63 1020.30 1019.89 1019.68 1019.47 1019.26 1019.09 1018.93 1018.73 1018.54 1018.39 1018.30 1018.07 1018.19 1018.24 1018.24 1018.26 1018.27 1018.19 1018.19 1018.23 1017.91 1017.29 1016.73 1016.41 1016.36 1016.16
1023.70 1023.65 1023.66 1023.63 1023.52 1023.37 1023.18 1023.27 1023.18 1023.23 1023.00 1022.52 1022.23 1021.88 1021.70 1021.48 1021.38 1021.04 1020.63 1020.19 1019.72 1019.56 1019.13 1018.96 1018.90 1018.81 1018.78 1018.76 1018.84 1018.97 1018.99 1019.01 1018.95 1018.80 1018.74 1018.61 1017.98 1017.22 1016.84 1016.57 1016.10 1015.75 1015.68
1024.40 1024.29 1024.30 1024.00 1023.83 1023.75 1023.66 1023.75 1023.92 1023.71 1023.48 1023.27 1023.02 1022.76 1022.37 1022.23 1021.93 1021.49 1021.06 1020.67 1020.24 1019.80 1019.80 1019.75 1019.71 1019.64 1019.49 1019.40 1019.38 1019.54 1019.67 1019.55 1018.93 1018.22 1017.84 1017.44 1017.12 1016.74 1016.56 1016.39 1016.15 1015.85 1015.74
1024.82 1024.73 1024.63 1024.40 1024.26 1024.00 1023.81 1023.76 1023.73 1023.98 1023.55 1023.32 1023.22 1023.14 1022.91 1022.66 1022.22 1022.04 1021.68 1021.24 1020.87 1020.52 1020.29 1020.27 1020.21 1020.03 1019.52 1019.10 1018.81 1018.63 1018.67 1018.59 1018.16 1017.75 1017.55 1017.25 1016.97 1016.76 1016.27 1016.23 1016.13 1016.01 1015.84
1025.24 1025.27 1024.95 1024.79 1024.59 1024.18 1023.90 1023.76 1023.76 1023.77 1023.62 1023.60 1023.58 1023.49 1023.24 1022.96 1022.60 1022.34 1022.18 1021.55 1021.28 1021.12 1021.09 1020.66 1020.28 1019.83 1019.30 1018.74 1018.43 1018.24 1018.18 1018.07 1017.89 1017.65 1017.46 1017.20 1016.90 1016.52 1016.29 1016.09 1015.91 1015.65 1015.44
1025.56 1025.46 1025.32 1025.18 1025.01 1024.91 1024.82 1024.73 1024.64 1024.50 1024.28 1024.11 1023.98 1023.79 1023.39 1023.19 1022.88 1022.61 1022.24 1021.91 1021.53 1021.21 1020.74 1019.99 1019.46 1019.27 1019.20 1019.22 1019.23 1019.25 1019.07 1018.85 1018.45 1017.98 1017.69 1017.40 1017.13 1016.39 1016.26 1016.05 1016.25 1016.25 1016.03
1025.77 1025.81 1025.47 1025.29 1025.44 1025.46 1025.40 1025.24 1025.09 1024.90 1024.69 1024.50 1024.34 1024.09 1023.21 1022.77 1022.49 1022.23 1021.78 1021.11 1020.56 1020.22 1020.07 1019.91 1019.71 1019.54 1019.40 1019.31 1019.17 1018.89 1018.65 1018.65 1018.48 1018.04 1017.84 1017.70 1017.33 1016.78 1016.31 1016.30 1016.04 1015.78 1015.52
1025.64 1025.80 1025.93 1026.05 1026.10 1026.07 1025.89 1025.84 1025.63 1025.35 1025.05 1024.53 1023.96 1023.80 1023.19 1021.93 1021.84 1021.63 1021.49 1021.17 1020.89 1020.68 1020.39 1020.05 1019.76 1019.59 1019.37 1019.22 1019.00 1018.73 1018.43 1018.37 1018.35 1017.92 1017.53 1017.27 1017.02 1016.48 1016.19 1015.93 1015.63 1015.48 1015.68
1025.52 1025.56 1026.26 1026.52 1026.63 1026.38 1026.11 1025.95 1025.79 1025.50 1024.97 1024.32 1023.56 1023.41 1022.94 1022.53 1022.46 1022.39 1022.34 1022.17 1021.92 1021.70 1021.23 1020.68 1020.41 1020.26 1020.22 1019.94 1019.66 1019.18 1019.08 1018.99 1018.87 1018.40 1017.91 1017.59 1017.38 1016.91 1016.52 1016.14 1015.91 1015.91 1015.97
1025.85 1026.39 1026.65 1026.43 1025.98 1025.54 1025.29 1025.39 1025.45 1025.00 1024.22 1023.69 1023.52 1023.42 1023.45 1023.40 1023.34 1023.26 1023.15 1023.01 1022.83 1022.63 1022.39 1022.10 1021.66 1021.41 1021.09 1020.89 1020.66 1020.45 1020.14 1019.77 1019.33 1019.07 1018.54 1018.15 1017.90 1017.42 1017.15 1016.86 1016.66 1016.66 1016.88
1026.14 1025.97 1025.93 1026.25 1025.71 1025.22 1025.64 1025.62 1026.02 1026.26 1025.40 1025.00 1024.81 1024.52 1024.38 1024.35 1024.25 1024.12 1023.87 1023.72 1023.67 1023.58 1023.42 1023.16 1023.12 1023.06 1022.76 1022.20 1021.95 1021.91 1022.10 1021.79 1020.36 1019.67 1019.24 1018.91 1018.58 1018.13 1017.88 1017.62 1017.52 1017.48 1017.31
1027.07 1026.70 1026.65 1026.29 1025.89 1026.06 1026.55 1027.16 1026.82 1026.02 1025.43 1025.30 1025.21 1025.16 1025.13 1025.10 1025.01 1024.85 1024.61 1024.54 1024.48 1024.37 1024.42 1024.35 1024.19 1023.99 1024.01 1023.97 1023.78 1023.49 1023.49 1022.84 1021.90 1021.24 1019.93 1019.62 1019.30 1019.06 1018.83 1018.52 1018.35 1018.16 1018.00
1027.49 1027.17 1027.04 1026.92 1027.21 1027.59 1027.56 1027.13 1026.32 1026.17 1026.12 1026.16 1026.14 1026.08 1025.99 1025.94 1025.90 1025.76 1025.62 1025.46 1025.28 1025.36 1025.28 1025.33 1025.43 1025.34 1024.98 1025.04 1025.29 1024.97 1024.26 1023.55 1022.73 1022.05 1020.75 1020.27 1020.11 1019.96 1019.44 1019.28 1019.03 1018.65 1018.63
Wind_Speed
7 8 8 8 8 8 8 9 9 9 9 9 8 9 8 7 6 7 5 4 4 7 8 7 9 9 8 7 4 6 5 2 4 1 2 4 5 8 8 9 9 10 9
7 7 7 7 7 8 9 10 9 9 9 9 8 8 6 5 6 7 7 6 6 6 9 9 10 9 11 8 7 6 8 5 2 3 2 3 6 7 6 9 7 7 7
8 8 7 7 8 8 9 9 8 9 8 8 7 6 5 5 6 7 8 8 7 6 6 9 10 11 11 10 10 7 7 7 5 3 3 1 3 2 5 6 6 5 5
8 8 8 7 8 8 9 9 9 10 9 7 6 5 5 6 7 10 11 10 6 4 6 8 10 11 13 12 10 8 7 5 6 4 4 2 3 4 3 3 5 6 7
9 8 7 7 8 8 8 9 10 10 9 9 7 5 6 4 8 10 12 9 6 5 6 8 9 9 9 9 7 8 9 5 3 3 3 1 1 0 2 2 5 4 8
11 10 9 10 9 7 7 9 10 10 11 10 9 9 9 6 8 11 12 9 2 5 6 9 11 10 10 8 10 10 9 5 4 1 2 1 4 3 1 2 3 2 3
11 11 12 10 9 7 8 8 9 10 11 10 10 9 8 6 10 11 14 10 4 5 6 8 9 8 9 9 8 9 5 1 1 2 4 2 2 2 1 4 8 7 5
11 12 11 10 9 7 8 9 9 10 8 8 11 11 10 7 10 11 14 9 4 5 6 7 9 11 9 8 6 5 7 7 2 1 5 4 4 3 4 6 7 7 4
13 11 12 10 11 10 11 10 10 9 8 8 7 6 6 6 11 12 12 3 4 6 6 10 9 9 11 6 4 7 6 7 13 18 14 11 10 8 4 2 2 5 4
10 10 9 9 9 6 5 7 8 9 8 4 4 4 6 8 9 12 13 7 7 7 9 8 10 8 8 9 7 5 6 6 6 9 6 6 7 8 10 6 3 4 3
9 7 9 7 6 9 8 7 9 7 5 4 4 5 6 5 6 10 13 7 5 4 5 5 5 10 11 12 10 7 6 5 8 6 6 6 9 6 6 6 5 4 4
7 6 8 7 6 7 9 6 7 9 7 7 5 4 3 4 6 9 8 7 7 4 4 4 6 11 11 10 8 7 5 5 5 6 7 7 7 8 7 7 9 5 6
10 10 8 7 8 6 6 7 5 7 6 5 5 5 5 6 8 9 8 8 9 6 5 6 6 7 6 8 7 8 7 8 7 8 8 8 6 5 6 4 3 12 11
8 7 8 8 7 7 6 5 4 5 4 5 6 5 7 6 6 6 6 5 7 5 3 4 5 5 7 7 8 10 9 8 6 5 7 6 4 5 5 5 7 7 7
9 9 8 6 6 5 5 6 5 6 6 6 6 7 6 5 6 5 5 5 5 5 4 7 8 8 9 9 9 9 7 6 6 6 5 4 4 4 6 4 4 5 7
7 6 6 5 5 5 4 6 10 7 7 7 7 7 3 5 7 9 11 12 12 11 9 8 8 8 8 7 7 6 5 5 6 6 5 5 5 5 5 5 5 5 5
7 7 5 5 5 5 5 5 5 4 7 10 9 11 9 7 9 10 10 11 12 7 8 7 7 7 7 7 8 7 7 4 5 6 5 5 5 4 3 5 5 5 5
7 8 6 5 6 6 7 7 7 7 7 7 9 9 11 11 12 12 9 3 8 9 7 6 6 6 6 7 8 8 8 7 7 6 6 5 5 5 5 5 4 4 4
7 6 6 5 6 6 6 7 6 7 6 5 5 7 9 9 7 8 7 9 8 9 7 7 9 9 9 9 8 7 7 6 6 6 5 4 5 4 4 3 5 1 5
8 5 5 7 6 7 6 6 6 6 6 6 8 7 4 4 5 6 8 8 9 9 9 9 8 8 8 7 6 5 5 5 5 4 4 3 3 5 5 4 5 6 4
7 7 9 7 6 6 6 6 6 6 6 7 8 5 7 9 11 11 11 11 10 10 9 9 8 9 8 8 8 7 8 8 7 6 6 6 5 5 5 4 5 4 6
6 10 8 6 4 4 3 3 4 4 6 7 7 8 6 11 11 11 11 10 9 9 9 9 9 10 9 9 9 9 9 9 8 8 8 8 8 7 7 7 7 8 10
10 10 6 5 6 4 8 7 6 5 8 10 11 11 11 11 11 11 10 10 10 10 10 10 11 11 10 10 11 11 11 9 8 10 9 8 8 7 7 7 8 8 9
8 8 10 8 6 9 9 10 11 12 11 11 11 10 10 10 10 11 10 10 10 10 10 10 11 15 13 12 11 12 11 10 10 9 11 9 9 8 8 8 8 9 7
9 8 8 6 9 10 11 8 6 7 9 10 10 10 10 10 11 10 10 10 10 10 12 11 11 14 17 18 17 16 12 11 11 12 9 10 10 10 9 8 8 8 10
7 6 7 8 8 6 6 6 7 9 10 10 10 10 10 10 10 10 10 11 10 11 12 11 14 18 18 16 17 14 12 12 12 14 8 9 9 10 8 10 11 8 9
Wind_Direction
346 343 336 335 325 319 315 313 305 295 290 288 290 287 290 301 312 308 306 309 5 322 314 334 331 338 343 320 325 289 308 269 287 100 48 36 47 56 45 42 31 26 30
335 331 324 324 321 320 316 308 308 300 302 295 286 297 305 346 302 313 307 311 283 304 316 323 342 343 335 320 320 335 301 314 268 264 77 61 61 49 49 52 36 19 25
332 320 317 331 322 321 320 322 317 312 314 321 326 340 351 337 333 327 313 304 291 291 305 318 328 339 335 339 322 334 324 325 320 255 109 79 89 51 51 45 33 31 33
322 312 336 334 325 332 332 336 334 339 332 334 336 357 357 351 8 347 330 323 303 310 298 314 320 335 341 330 320 318 325 340 326 93 98 101 77 58 54 35 50 42 52
321 326 315 326 326 331 342 347 345 339 332 330 329 337 342 341 33 347 328 340 326 317 314 303 322 340 313 331 321 321 320 355 342 99 103 83 147 103 58 17 76 55 51
334 328 332 323 316 346 337 345 350 343 348 342 341 335 339 32 24 344 328 324 330 311 324 326 314 322 349 334 318 302 314 333 342 111 117 135 76 83 182 245 189 203 62
331 319 320 319 332 335 343 347 357 350 345 347 342 354 359 356 11 336 325 302 265 289 314 312 334 341 335 334 329 304 273 189 253 334 142 94 94 136 64 44 78 80 72
332 330 339 337 332 341 358 360 354 353 344 337 9 11 7 358 358 332 319 303 306 299 313 347 348 336 347 329 321 39 44 33 31 97 84 78 81 116 74 88 91 102 90
350 339 353 359 14 14 12 0 346 333 351 23 2 7 334 339 3 333 319 304 300 16 23 18 357 336 342 342 81 71 55 56 66 72 71 72 63 56 42 152 143 111 92
352 355 3 20 26 9 330 337 343 4 16 7 352 360 314 24 4 351 352 17 23 18 16 3 14 12 17 34 66 68 64 39 66 66 57 68 97 80 38 41 15 106 119
17 9 26 35 341 7 351 1 8 350 348 334 6 356 31 38 35 13 9 30 15 5 13 13 22 32 50 58 56 55 52 66 70 72 65 58 67 46 51 47 45 54 95
32 20 28 8 346 2 8 15 8 7 10 21 28 22 41 58 26 49 22 20 6 11 27 45 47 49 56 56 69 70 87 126 115 90 72 62 63 65 51 63 62 70 62
20 21 9 7 19 13 8 15 4 9 16 25 25 32 31 33 42 25 24 23 30 54 60 66 55 59 61 73 46 38 38 50 66 68 65 66 57 57 57 49 75 81 65
11 8 16 25 16 23 20 9 9 11 9 29 28 29 43 35 12 357 17 26 31 50 74 87 108 111 79 71 63 60 55 53 66 74 72 68 47 76 74 93 87 88 87
27 31 21 24 25 21 27 19 15 44 23 32 25 38 18 16 2 354 18 33 40 16 50 61 57 54 55 57 57 53 57 59 64 84 84 88 93 101 85 85 78 78 80
19 23 24 24 26 28 26 72 48 55 41 36 27 31 74 37 5 23 31 33 22 34 71 61 59 57 58 60 65 64 60 75 83 92 112 97 66 76 91 85 66 64 80
36 29 19 20 33 37 55 46 69 82 77 56 42 41 30 23 27 31 30 45 37 50 67 58 62 68 72 85 100 101 97 118 163 87 82 77 85 93 94 78 73 82 91
45 34 36 29 34 45 50 48 44 39 42 34 42 31 26 30 36 32 20 85 64 53 70 79 81 96 103 84 78 75 73 72 67 68 70 65 60 61 77 86 80 73 89
45 37 38 43 46 44 46 47 45 40 33 25 18 19 8 7 34 46 42 68 78 80 86 85 79 76 74 68 62 55 41 41 17 23 26 29 10 14 52 61 113 38 275
74 49 52 66 54 47 40 39 37 37 35 38 45 20 358 120 99 111 99 98 92 87 83 75 69 65 59 60 52 53 57 55 44 44 52 35 4 346 29 0 6 348 359
79 75 70 63 57 46 44 43 42 43 39 54 51 39 301 60 65 69 66 56 56 57 50 49 48 41 39 37 34 28 36 41 32 20 23 28 19 19 10 4 16 23 33
75 79 70 68 58 59 80 99 77 67 53 59 76 61 310 69 64 62 57 49 50 42 29 28 42 37 39 33 18 26 32 31 25 8 16 18 8 14 11 17 23 27 19
88 94 104 96 84 96 78 80 84 78 72 61 61 61 62 58 56 54 53 51 47 44 45 38 34 34 29 29 30 23 20 18 27 10 16 21 37 12 30 32 28 47 41
93 96 78 64 55 72 69 61 62 47 52 55 53 54 57 57 55 55 52 52 53 50 44 43 45 42 31 30 31 36 26 1 8 23 26 30 31 28 35 35 43 34 37
54 68 81 72 62 63 63 50 53 60 63 58 57 59 59 58 58 54 52 56 51 52 50 45 35 41 41 36 27 23 9 352 2 334 34 34 36 45 37 39 40 44 32
83 78 79 77 80 82 73 60 59 62 63 61 59 57 58 57 55 51 48 47 51 52 50 47 42 35 33 32 19 9 357 353 353 341 357 41 41 23 28 34 30 30 32